GW5682 Weather Reports


Display with metric or nautical units.
time (UTC)temp
F
wind
direction
speed
MPH
gust
MPH
rain 1hr
in
rain 24hr
in
rain mn
in
humidity
%
barometer
mb
20260507120123 50 0.0 0.0 0.00 0.17 0.00 96 1021.8
20260507115147 50 0.0 0.0 0.00 0.17 0.00 95 1021.6
20260507114123 50 0.0 1.0 0.00 0.17 0.00 95 1021.6
20260507113147 50 45 1.0 1.0 0.00 0.17 0.00 95 1021.4
20260507112123 50 225 1.0 2.0 0.00 0.17 0.00 95 1020.9
20260507111147 50 0.0 0.0 0.00 0.17 0.00 95 1021.1
20260507110123 50 0.0 0.0 0.00 0.17 0.00 94 1021.0
20260507105147 50 0.0 0.0 0.00 0.17 0.00 94 1020.9
20260507104123 50 0.0 0.0 0.00 0.17 0.00 94 1020.6
20260507103147 50 45 1.0 1.0 0.00 0.17 0.00 94 1020.4
20260507102123 50 0.0 0.0 0.00 0.17 0.00 94 1020.2
20260507101147 51 0.0 0.0 0.00 0.17 0.00 94 1020.1
20260507100123 51 0.0 0.0 0.00 0.17 0.00 94 1020.2
20260507095147 51 0.0 0.0 0.00 0.17 0.00 94 1019.9
20260507094123 51 0.0 1.0 0.00 0.17 0.00 94 1020.0
20260507093207 51 45 1.0 2.0 0.00 0.17 0.00 94 1020.1
20260507092123 51 0.0 0.0 0.00 0.17 0.00 93 1020.1
20260507091147 51 0.0 0.0 0.00 0.17 0.00 93 1020.2
20260507090123 52 0.0 1.0 0.00 0.17 0.00 93 1019.7
20260507085147 52 0.0 0.0 0.00 0.17 0.00 92 1019.8
20260507084123 52 0.0 0.0 0.00 0.17 0.00 92 1019.8
20260507083207 52 23 1.0 1.0 0.00 0.17 0.00 92 1019.9
20260507082123 52 0 2.0 3.0 0.00 0.17 0.00 92 1019.8
20260507081147 52 0 2.0 3.0 0.00 0.17 0.00 91 1019.6
20260507080123 53 45 2.0 3.0 0.00 0.17 0.00 91 1019.6
20260507075147 53 0 3.0 5.0 0.00 0.17 0.00 91 1019.4
20260507074123 53 0 3.0 3.0 0.00 0.17 0.00 91 1019.4
20260507073147 53 338 2.0 3.0 0.00 0.17 0.00 90 1019.7
20260507072123 53 0 1.0 3.0 0.00 0.17 0.00 90 1019.7
20260507071147 53 0 1.0 1.0 0.00 0.17 0.00 90 1019.8
20260507070123 53 45 1.0 2.0 0.00 0.17 0.00 90 1019.7
20260507065147 54 0 1.0 2.0 0.00 0.17 0.00 89 1019.8
20260507064123 54 45 2.0 3.0 0.00 0.17 0.00 88 1019.5
20260507063147 54 45 1.0 2.0 0.00 0.17 0.00 87 1019.3
20260507062124 54 45 1.0 3.0 0.00 0.17 0.00 87 1019.4
20260507061147 55 45 3.0 3.0 0.00 0.17 0.00 83 1019.3
20260507060123 55 90 3.0 4.0 0.00 0.17 0.00 83 1019.1
20260507055147 55 45 2.0 3.0 0.00 0.17 0.00 82 1019.3
20260507054244 55 45 1.0 2.0 0.00 0.17 0.00 81 1019.2
20260507053147 56 0.0 1.0 0.00 0.17 0.00 80 1019.3
20260507052124 56 45 3.0 4.0 0.00 0.17 0.00 80 1019.3
20260507051147 57 45 2.0 3.0 0.00 0.17 0.00 80 1019.4
20260507050123 57 45 4.0 5.0 0.00 0.17 0.17 79 1019.4
20260507045147 57 90 2.0 3.0 0.00 0.17 0.17 79 1019.3
20260507044144 57 45 2.0 3.0 0.00 0.17 0.17 78 1019.4
20260507043227 57 45 3.0 3.0 0.00 0.17 0.17 78 1019.3
20260507042123 58 45 4.0 5.0 0.00 0.17 0.17 78 1019.8
20260507041147 58 90 3.0 3.0 0.00 0.17 0.17 77 1019.6
20260507040123 58 45 4.0 5.0 0.00 0.17 0.17 77 1019.7
20260507035228 58 0 5.0 6.0 0.00 0.17 0.17 77 1019.8
20260507034123 58 0 6.0 7.0 0.00 0.17 0.17 77 1019.6
20260507033328 58 45 5.0 6.0 0.00 0.17 0.17 76 1019.5
20260507032123 58 90 7.0 9.0 0.00 0.17 0.17 77 1019.6
20260507031147 58 315 3.0 4.0 0.00 0.17 0.17 77 1019.4
20260507030143 58 0 5.0 7.0 0.00 0.17 0.17 77 1019.1
20260507025148 58 0 3.0 4.0 0.00 0.17 0.17 78 1019.0
20260507024123 58 0 4.0 5.0 0.00 0.17 0.17 79 1018.9
20260507023148 58 45 4.0 5.0 0.00 0.17 0.17 79 1018.9
20260507022244 58 0 4.0 5.0 0.00 0.17 0.17 80 1018.5
20260507021147 58 45 1.0 1.0 0.00 0.17 0.17 79 1018.3
20260507020124 58 45 1.0 2.0 0.00 0.17 0.17 78 1018.0
20260507015147 58 0 3.0 4.0 0.00 0.17 0.17 78 1017.8
20260507014123 58 0 4.0 6.0 0.00 0.17 0.17 79 1017.6
20260507013207 58 0 3.0 4.0 0.00 0.17 0.17 79 1017.4
20260507012123 58 315 3.0 5.0 0.00 0.17 0.17 79 1017.3
20260507011147 58 23 3.0 5.0 0.00 0.17 0.17 79 1017.4
20260507010123 58 90 3.0 5.0 0.00 0.17 0.17 79 1017.1
20260507005147 59 45 4.0 6.0 0.00 0.17 0.17 78 1017.0
20260507004124 59 90 3.0 4.0 0.00 0.17 0.17 78 1016.8
20260507003148 59 315 4.0 5.0 0.00 0.17 0.17 77 1016.7
20260507002123 59 0 6.0 7.0 0.00 0.17 0.17 77 1016.6
20260507001147 59 293 4.0 7.0 0.00 0.17 0.17 76 1016.7
20260507000123 59 23 6.0 8.0 0.00 0.17 0.17 77 1016.2
20260506235148 59 338 5.0 6.0 0.00 0.17 0.17 77 1016.5
20260506234123 59 90 6.0 9.0 0.00 0.17 0.17 76 1016.0
20260506233148 59 45 6.0 8.0 0.00 0.17 0.17 76 1016.1
20260506232123 59 315 5.0 5.0 0.00 0.17 0.17 76 1016.0
20260506231208 59 45 6.0 7.0 0.00 0.17 0.17 75 1016.2
20260506230123 59 0 5.0 7.0 0.00 0.17 0.17 74 1016.4
20260506225147 59 45 4.0 5.0 0.00 0.17 0.17 75 1016.2
20260506224123 59 0 4.0 5.0 0.00 0.17 0.17 75 1016.3
20260506223147 59 0 3.0 5.0 0.00 0.17 0.17 75 1016.1
20260506222123 59 0 5.0 6.0 0.00 0.17 0.17 74 1016.3
20260506221148 59 0 5.0 7.0 0.00 0.17 0.17 73 1015.8
20260506220124 59 23 6.0 9.0 0.00 0.17 0.17 73 1015.9
20260506215147 59 45 5.0 7.0 0.00 0.17 0.17 73 1015.7
20260506214124 59 338 4.0 6.0 0.00 0.17 0.17 73 1016.1
20260506213147 59 0 5.0 7.0 0.00 0.17 0.17 74 1016.0
20260506212123 58 90 4.0 5.0 0.00 0.17 0.17 74 1015.9
20260506211147 59 0 5.0 7.0 0.00 0.17 0.17 73 1016.1
20260506210124 59 45 5.0 7.0 0.00 0.17 0.17 73 1016.0
20260506205147 59 45 3.0 4.0 0.00 0.17 0.17 74 1016.1
20260506204124 58 0 5.0 7.0 0.00 0.17 0.17 73 1016.3
20260506203147 58 45 3.0 5.0 0.00 0.17 0.17 73 1016.7
20260506202143 58 225 3.0 5.0 0.00 0.17 0.17 73 1016.5
20260506201147 58 0 3.0 5.0 0.00 0.17 0.17 73 1016.4
20260506200124 58 0 5.0 7.0 0.00 0.17 0.17 76 1016.5
20260506195147 57 338 3.0 4.0 0.00 0.17 0.17 75 1016.6
20260506194123 57 0 3.0 4.0 0.00 0.17 0.17 76 1016.8
20260506193147 57 0 3.0 5.0 0.00 0.17 0.17 77 1016.7
20260506192123 57 45 1.0 2.0 0.00 0.17 0.17 77 1016.9
20260506191147 57 338 3.0 5.0 0.00 0.17 0.17 77 1017.1
20260506190123 57 0 3.0 5.0 0.00 0.17 0.17 79 1016.8
20260506185147 56 0 5.0 6.0 0.00 0.17 0.17 80 1016.3
20260506184123 56 0 7.0 10.0 0.00 0.17 0.17 80 1015.8
20260506183148 56 0 6.0 9.0 0.00 0.17 0.17 80 1015.7
20260506182123 56 45 7.0 9.0 0.00 0.17 0.17 81 1015.4
20260506181147 55 0 5.0 7.0 0.00 0.17 0.17 82 1015.5
20260506180124 55 45 6.0 8.0 0.00 0.17 0.17 83 1016.0
20260506175207 54 0 3.0 3.0 0.00 0.17 0.17 87 1016.0
20260506174124 54 23 6.0 9.0 0.00 0.17 0.17 88 1016.1
20260506173147 54 0 6.0 7.0 0.00 0.17 0.17 88 1016.5
20260506172124 53 315 5.0 9.0 0.00 0.17 0.17 89 1016.5
20260506171148 53 315 7.0 9.0 0.00 0.17 0.17 88 1016.5
20260506170123 54 45 5.0 7.0 0.01 0.17 0.17 89 1016.8
20260506165147 54 0 7.0 10.0 0.05 0.17 0.17 89 1017.0
20260506164123 54 45 5.0 7.0 0.17 0.17 0.17 90 1017.3
20260506163147 54 0 2.0 3.0 0.17 0.17 0.17 91 1017.5
20260506162204 53 0 3.0 5.0 0.17 0.17 0.17 92 1017.2
20260506161148 52 45 5.0 7.0 0.17 0.17 0.17 90 1016.0
20260506160123 52 0 7.0 9.0 0.15 0.15 0.15 89 1015.7
20260506155147 53 45 4.0 5.0 0.12 0.12 0.12 83 1017.7
20260506154123 53 338 1.0 3.0 0.00 0.00 0.00 80 1018.6
20260506153147 54 45 3.0 4.0 0.00 0.00 0.00 78 1017.9
20260506152144 54 0 5.0 7.0 0.00 0.00 0.00 78 1016.8
20260506151308 54 315 9.0 12.0 0.00 0.00 0.00 79 1015.7
20260506150123 54 225 5.0 7.0 0.00 0.00 0.00 79 1017.0
20260506145147 53 0 5.0 7.0 0.00 0.00 0.00 80 1016.9
20260506144123 53 0 6.0 9.0 0.00 0.00 0.00 80 1017.1
20260506143147 53 315 5.0 7.0 0.00 0.00 0.00 80 1016.5
20260506142123 53 23 6.0 7.0 0.00 0.00 0.00 80 1016.5
20260506141147 53 338 8.0 9.0 0.00 0.00 0.00 80 1016.2
20260506140123 53 338 3.0 5.0 0.00 0.00 0.00 80 1016.2
20260506135147 53 45 4.0 5.0 0.00 0.00 0.00 80 1015.9
20260506134123 53 0 8.0 11.0 0.00 0.00 0.00 80 1015.8
20260506133147 53 315 6.0 8.0 0.00 0.00 0.00 80 1015.8
20260506132124 53 270 4.0 5.0 0.00 0.00 0.00 81 1015.5
20260506131207 53 0 5.0 7.0 0.00 0.00 0.00 82 1015.9
20260506130123 53 0 6.0 7.0 0.00 0.00 0.00 83 1015.7
20260506125148 53 315 6.0 7.0 0.00 0.00 0.00 83 1015.6
20260506124123 53 0 5.0 7.0 0.00 0.00 0.00 83 1015.2
20260506123147 53 0 7.0 10.0 0.00 0.00 0.00 83 1015.5
20260506122123 53 0 9.0 10.0 0.00 0.00 0.00 83 1015.1
20260506121228 53 0 7.0 10.0 0.00 0.00 0.00 82 1015.2